This is the latest recevied weather packets stored in our database for station/object N9XRG. If no packets are shown the sender has not sent any weather packets the latest 10 day(s).
| Time | Temp. | Humidity | Pressure | Rain* | Wind** | Luminosity | Snow |
|---|---|---|---|---|---|---|---|
| 1778151502 | 4.44° C | 75% | 1014.8 hPa | 0 mm | - | 21 W/m² | - |
| 1778151198 | 4.44° C | 74% | 1014.6 hPa | 0 mm | - | 12 W/m² | - |
| 1778150895 | 4.44° C | 74% | 1014.6 hPa | 0 mm | - | 9 W/m² | - |
| 1778150591 | 4.44° C | 74% | 1014.5 hPa | 0 mm | - | 6 W/m² | - |
| 1778150288 | 4.44° C | 75% | 1014.6 hPa | 0 mm | - | 4 W/m² | - |
| 1778149984 | 4.44° C | 74% | 1014.6 hPa | 0 mm | - | 2 W/m² | - |
| 1778149681 | 4.44° C | 74% | 1014.5 hPa | 0 mm | - | 1 W/m² | - |
| 1778149377 | 4.44° C | 73% | 1014.5 hPa | 0 mm | - | 1 W/m² | - |
| 1778149074 | 4.44° C | 75% | 1014.7 hPa | 0 mm | - | 0 W/m² | - |
| 1778148774 | 4.44° C | 73% | 1014.6 hPa | 0 mm | - | 0 W/m² | - |
| 1778148471 | 4.44° C | 74% | 1014.5 hPa | 0 mm | - | 0 W/m² | - |
| 1778148170 | 4.44° C | 74% | 1014.9 hPa | 0 mm | - | 0 W/m² | - |
| 1778147867 | 4.44° C | 74% | 1014.8 hPa | 0 mm | - | 0 W/m² | - |
| 1778147563 | 4.44° C | 76% | 1014.4 hPa | 0 mm | - | 0 W/m² | - |
| 1778147261 | 4.44° C | 74% | 1014.5 hPa | 0 mm | - | 0 W/m² | - |
| 1778146958 | 4.44° C | 75% | 1014.5 hPa | 0 mm | - | 0 W/m² | - |
| 1778146654 | 4.44° C | 75% | 1014.5 hPa | 0 mm | - | 0 W/m² | - |
| 1778146353 | 4.44° C | 75% | 1014.5 hPa | 0 mm | - | 0 W/m² | - |
| 1778146050 | 4.44° C | 75% | 1014.1 hPa | 0 mm | - | 0 W/m² | - |
| 1778145746 | 3.89° C | 76% | 1014.4 hPa | 0 mm | - | 0 W/m² | - |
| 1778145443 | 3.89° C | 76% | 1014.3 hPa | 0 mm | - | 0 W/m² | - |
| 1778145139 | 3.89° C | 77% | 1014.4 hPa | 0 mm | - | 0 W/m² | - |
| 1778144840 | 3.33° C | 80% | 1014.3 hPa | 0 mm | - | 0 W/m² | - |
| 1778144537 | 3.33° C | 81% | 1014.2 hPa | 0 mm | - | 0 W/m² | - |
| 1778144234 | 2.78° C | 85% | 1014.5 hPa | 0 mm | - | 0 W/m² | - |
* Rain latest hour (hover to see other rain measurements)
** Current wind speed in m/s (hover to see current wind gust speed)